Location: Lac Lasalle
(46.0398°N, 74.1576°W)
Time: 00:47:08
(UTC-05:00)

SEEDS - Pass Details

Date: 23 December 2019
Orbit: 586 x 603 km, 97.5° (Epoch: 20 January)

Event Time Altitude Azimuth Distance (km) Brightness Sun altitude
Rises 18:17:12 0° 218° (SW) 2,813 ? -20.2°
Reaches altitude 10° 18:20:50 10° 252° (WSW) 1,924 ? -20.8°
Maximum altitude 18:22:17 12° 272° (W) 1,826 ? -21.1°
Drops below altitude 10° 18:23:45 10° 293° (WNW) 1,933 ? -21.3°
Sets 18:27:25 0° 326° (NNW) 2,848 ? -21.9°
